Location: Newark
(46.3567°N, 6.1428°E)
Time: 10:46:43
(UTC+00:00)

ISS - Visible Passes

Search period start: 19 July 2019 00:00
Search period end: 29 July 2019 00:00
Orbit: 409 x 418 km, 51.6° (Epoch: 19 July)

Date Brightness Start Highest point End Pass type
(mag) Time Alt. Az. Time Alt. Az. Time Alt. Az.
19 Jul -2.2 00:17:24 10° WNW 00:20:33 37° NNE 00:23:40 10° E visible
19 Jul -3.9 01:54:06 10° WNW 01:57:24 67° SSW 02:00:41 10° SE visible
19 Jul -3.7 20:13:53 10° SW 20:17:10 56° SSE 20:20:26 10° ENE visible
19 Jul -2.4 21:50:46 10° W 21:53:57 40° NNW 21:57:08 10° ENE visible
19 Jul -2.0 23:28:04 10° WNW 23:31:09 33° N 23:34:12 10° ENE visible
20 Jul -3.8 01:04:48 10° WNW 01:08:08 81° NNE 01:09:07 43° ESE visible
20 Jul -1.9 02:45:52 14° SSW 02:45:52 14° SSW 02:46:49 10° S visible
20 Jul -2.8 21:01:19 10° W 21:04:35 50° NNW 21:07:51 10° ENE visible
20 Jul -1.9 22:38:41 10° WNW 22:41:43 31° N 22:44:44 10° ENE visible
21 Jul -2.7 00:15:31 10° WNW 00:18:02 43° NNW 00:18:02 43° NNW visible
21 Jul -3.4 20:11:53 10° WSW 20:15:13 70° NNW 20:18:34 10° ENE visible
21 Jul -1.9 21:49:13 10° WNW 21:52:16 32° N 21:55:19 10° ENE visible
21 Jul -2.6 23:26:14 10° WNW 23:29:26 43° NNE 23:29:27 43° NNE visible
22 Jul -2.1 20:59:42 10° WNW 21:02:49 35° N 21:05:56 10° ENE visible
22 Jul -2.2 22:36:53 10° WNW 22:40:01 36° N 22:41:15 26° NE visible
23 Jul -1.1 00:13:35 10° WNW 00:14:02 13° WNW 00:14:02 13° WNW visible
23 Jul -2.4 20:10:11 10° W 20:13:23 42° NNW 20:16:36 10° ENE visible
23 Jul -2.0 21:47:30 10° WNW 21:50:34 32° N 21:53:12 13° ENE visible
23 Jul -2.0 23:24:15 10° WNW 23:26:00 28° NW 23:26:00 28° NW visible
24 Jul -2.0 20:58:02 10° WNW 21:01:05 31° N 21:04:07 10° ENE visible
24 Jul -3.0 22:34:56 10° WNW 22:38:03 51° N 22:38:03 51° N visible
25 Jul -2.0 20:08:31 10° WNW 20:11:36 33° N 20:14:39 10° ENE visible
25 Jul -2.6 21:45:35 10° WNW 21:48:47 40° NNE 21:50:09 26° ENE visible
25 Jul -1.2 23:22:17 10° WNW 23:22:57 15° WNW 23:22:57 15° WNW visible
26 Jul -2.3 20:56:11 10° WNW 20:59:18 34° N 21:02:16 11° ENE visible
26 Jul -2.6 22:32:54 10° WNW 22:35:05 38° WNW 22:35:05 38° WNW visible
27 Jul -2.1 20:06:44 10° WNW 20:09:48 32° N 20:12:50 10° ENE visible
27 Jul -3.6 21:43:31 10° WNW 21:46:51 66° NNE 21:47:15 58° ENE visible
28 Jul -3.0 20:54:09 10° WNW 20:57:25 48° NNE 20:59:26 20° E visible
28 Jul -1.6 22:30:56 10° WNW 22:32:15 20° W 22:32:15 20° W visible
